TimeMDT,TemperatureF,Dew PointF,Humidity,Sea Level PressureIn,VisibilityMPH,Wind Direction,Wind SpeedMPH,Gust SpeedMPH,PrecipitationIn,Events,Conditions,WindDirDegrees,DateUTC
12:52 AM,14.0,8.1,77,30.44,10.0,North,18.4,-,0.00,,Overcast,350,2013-03-25 06:52:00
1:52 AM,12.0,6.1,77,30.44,10.0,North,13.8,-,0.00,,Mostly Cloudy,350,2013-03-25 07:52:00
2:04 AM,10.4,6.8,85,30.27,10.0,North,13.8,-,N/A,,Scattered Clouds,350,2013-03-25 08:04:00
2:52 AM,12.9,8.1,81,30.44,10.0,NNW,12.7,-,N/A,,Mostly Cloudy,330,2013-03-25 08:52:00
3:12 AM,12.2,8.6,85,30.27,10.0,NW,10.4,-,N/A,,Overcast,320,2013-03-25 09:12:00
3:52 AM,12.9,8.1,81,30.44,10.0,NNW,10.4,-,0.00,,Overcast,330,2013-03-25 09:52:00
4:18 AM,8.6,5.0,85,30.26,10.0,NW,12.7,-,N/A,,Scattered Clouds,320,2013-03-25 10:18:00
4:52 AM,8.1,3.9,83,30.45,10.0,NW,10.4,-,N/A,,Clear,320,2013-03-25 10:52:00
5:52 AM,6.1,3.0,87,30.47,10.0,NW,6.9,-,N/A,,Clear,310,2013-03-25 11:52:00
6:52 AM,3.9,-2.0,76,30.48,10.0,NW,5.8,-,N/A,,Clear,310,2013-03-25 12:52:00
7:52 AM,3.0,-2.0,80,30.49,10.0,Calm,Calm,-,N/A,,Clear,0,2013-03-25 13:52:00
8:52 AM,10.0,3.0,73,30.48,10.0,Calm,Calm,-,N/A,,Clear,0,2013-03-25 14:52:00
9:52 AM,12.0,5.0,73,30.48,10.0,Calm,Calm,-,N/A,,Clear,0,2013-03-25 15:52:00
10:52 AM,15.1,6.1,68,30.48,10.0,Calm,Calm,-,N/A,,Clear,0,2013-03-25 16:52:00
11:52 AM,19.0,9.0,65,30.46,10.0,Calm,Calm,-,N/A,,Clear,0,2013-03-25 17:52:00
12:52 PM,21.9,10.0,60,30.44,10.0,Calm,Calm,-,N/A,,Clear,0,2013-03-25 18:52:00
1:52 PM,25.0,12.0,58,30.42,10.0,East,3.5,-,N/A,,Clear,100,2013-03-25 19:52:00
2:52 PM,26.1,12.0,55,30.40,10.0,Calm,Calm,-,N/A,,Clear,0,2013-03-25 20:52:00
3:52 PM,28.0,10.9,49,30.38,10.0,Calm,Calm,-,N/A,,Clear,0,2013-03-25 21:52:00
4:52 PM,30.0,9.0,41,30.38,10.0,Calm,Calm,-,N/A,,Clear,0,2013-03-25 22:52:00
5:52 PM,28.0,10.0,47,30.38,10.0,SSE,3.5,-,N/A,,Clear,160,2013-03-25 23:52:00
6:52 PM,25.0,12.0,58,30.39,10.0,SSE,3.5,-,N/A,,Clear,160,2013-03-26 00:52:00
7:52 PM,21.0,12.0,68,30.40,10.0,SSE,3.5,-,N/A,,Clear,150,2013-03-26 01:52:00
8:52 PM,18.0,12.9,81,30.39,10.0,SE,4.6,-,N/A,,Clear,130,2013-03-26 02:52:00
9:52 PM,16.0,12.0,84,30.38,10.0,SSE,6.9,-,N/A,,Clear,150,2013-03-26 03:52:00
10:52 PM,15.1,10.9,84,30.36,10.0,SSE,5.8,-,N/A,,Clear,150,2013-03-26 04:52:00
11:52 PM,18.0,10.9,74,30.32,10.0,South,11.5,-,N/A,,Clear,180,2013-03-26 05:52:00